Details for FedEx at ZSPD




Go Back


Latest METAR
Local Time

ZSPD 252200Z 31003MPS 3000 BR BKN006 23/22 Q1004 NOSIG

26/05/2018, 06:17:59

Description
Results
FedEx Logo
Number of Pilots based at ZSPD
0 Pilots Based here
Number of FedEx Flights Departed from ZSPD
0 Flights Departed
Number of FedEx Flights Arrived at ZSPD
0 Flights Arrived
Number of FedEx Schedules Departing from ZSPD
34 Schedules
Number of FedEx Schedules Arriving at ZSPD
33 Schedules
Number of FedEx Schedules Departing from ZSPD availible today
6 Schedules Today
Number of FedEx Schedules Arriving at ZSPD availible today
6 Schedules Today
Average Landing Rate at ZSPD
-209 fpm
FedEx Average Landing Rate at ZSPD
0 fpm
Total Fuel Purchased at ZSPD by FedEx
0.00 kgs / 0.00 lbs

Pilots Based at ZSPD


Pilot ID
Pilot Name
Pilot Rank
No. of Flights
No. of Flying Hours
There are no pilots assigned to this hub!   Will you be the first?
Content